Regional Weather Roundup
Issued by NWS Kansas City/Pleasant Hill, MO

Home | Current Version | Previous Version | Graphics & Text | Print | Product List | Glossary Off
Versions: 1 2 3 4 5 6 7 8 9 10 11 12 13 14 15 16 17 18 19 20 21 22 23 24 25 26 27 28 29 30 31 32 33 34 35 36 37 38 39 40 41 42 43 44 45 46 47 48 49 50

000
ASUS43 KEAX 211110
RWREAX

WEATHER ROUNDUP FOR EASTERN KANSAS AND NORTHWEST MISSOURI
NATIONAL WEATHER SERVICE KANSAS CITY/PLEASANT HILL MO
500 AM CST SAT JAN 21 2017

KSZ040-057-103>105-MOZ028-029-037-043-211200-
...KANSAS CITY METROPOLITAN AREA...

CITY           SKY/WX    TMP DP  RH WIND       PRES   REMARKS
K.C. INTL      FOG       41  40  96 SW6       29.43R VSB 1/4
K.C. DOWNTOWN  CLOUDY    42  40  92 W8        29.44R FOG
LEES SUMMIT    CLEAR     40  38  93 SW9       29.44R WCI  34
OLATHE - IXD   FOG       37  36  96 SW9       29.45S VSB 3/4 WCI  30
OLATHE - OJC   MOCLDY    38  38 100 W9        29.45S FOG     WCI  31
LAWRENCE       FOG       37  37 100 W3        29.45F VSB 3/4

$$

MOZ001>008-011>017-020>025-030>033-038>040-044>046-053-054-211200-
...NORTHERN AND CENTRAL MISSOURI...

CITY           SKY/WX    TMP DP  RH WIND       PRES   REMARKS
ST. JOSEPH     FOG       38  38 100 SE3       29.42S VSB 1/4
MOSBY          CLOUDY    36  36 100 CALM      29.44R
WARRENSBURG    CLEAR     43  36  75 SW12      29.45R
WHITEMAN AFB   CLEAR     46  42  85 W12       29.44R
CLINTON        CLEAR     46  37  71 SW9       29.48S
SEDALIA        CLEAR     50  38  63 SW12      29.46R
WARSAW         NOT AVBL
CHILLICOTHE      N/A     34  33  96 CALM      29.41F
KIRKSVILLE     CLEAR     37  36  96 S6        29.40F WCI  32

$$

MOZ041-047>049-056>058-063>065-088>090-097-211200-
...EASTERN AND SOUTHERN MISSOURI...

CITY           SKY/WX    TMP DP  RH WIND       PRES   REMARKS
ST. LOUIS INTL MOCLDY    53  46  77 S7        29.52F
SPIRIT OF STL  CLOUDY    55  46  71 S10       29.50F
COLUMBIA       CLEAR     51  41  68 S12       29.46F
JEFFERSON CITY CLEAR     53  40  61 S8        29.48S
ROLLA          CLEAR     52  43  71 S13       29.49F
OSAGE BEACH    CLEAR     50  40  68 SE5       29.50F
SPRINGFIELD    CLEAR     48  38  68 S10       29.53R
BRANSON        CLOUDY    54  37  54 SW5       29.56S
JOPLIN         CLEAR     48  36  63 SW10      29.53R
WEST PLAINS    PTCLDY    53  44  71 S7        29.58S

$$

IAZ060-094-KSZ022-034>040-054-083-096-NEZ052-066-093-211200-
...KANSAS...SOUTHEAST NEBRASKA AND IOWA...

CITY           SKY/WX    TMP DP  RH WIND       PRES   REMARKS
TOPEKA         PTCLDY    35  33  92 CALM      29.46R FOG
MANHATTAN      CLEAR     37  36  96 SW8       29.45R FOG     WCI  31
EMPORIA        CLEAR     36  35  96 SW7       29.47R WCI  30
CHANUTE        CLEAR     40  37  89 SW9       29.50F WCI  34
WICHITA        CLEAR     32  30  92 W3        29.49F
OMAHA          CLOUDY    41  38  89 CALM      29.38S FOG
LINCOLN        MOCLDY    37  36  96 S5        29.40S WCI  33
FALLS CITY     CLOUDY    43  42  97 SW5       29.40S
LAMONI         FOG       42  42 100 S5        29.40S VSB 1/4
DES MOINES     FOG       43  42  97 S6        29.39S VSB 1/4

$$




USA.gov is the U.S. government's official web portal to all federal, state and local government web resources and services.